Regional Weather Roundup
Issued by NWS Little Rock, AR

Home | Current Version | Previous Version | Graphics & Text | Print | Product List | Glossary On
Versions: 1 2 3 4 5 6 7 8 9 10 11 12 13 14 15 16 17 18 19 20 21 22 23 24 25 26 27 28 29 30 31 32
000
ASUS44 KLZK 211305
RWRLZK

WEATHER ROUNDUP FOR ARKANSAS
NATIONAL WEATHER SERVICE LITTLE ROCK AR
800 AM CDT FRI JUL 21 2017

NOTE: "FAIR" INDICATES FEW OR NO CLOUDS BELOW 12,000 FEET WITH NO
SIGNIFICANT WEATHER AND/OR OBSTRUCTIONS TO VISIBILITY.

ARZ001-003-010-029-211400-
NORTHWEST ARKANSAS

CITY           SKY/WX    TMP DP  RH WIND       PRES   REMARKS
FAYETTEVILLE   SUNNY     75  75 100 E3        30.08R
FORT SMITH     SUNNY     81  77  88 NE3       30.03R HX  88
HARRISON       SUNNY     81  73  76 CALM      30.08R HX  86
BENTONVILLE    SUNNY     79  72  78 CALM      30.08R
ROGERS         SUNNY     81  73  76 SW6       30.08R HX  86
SILOAM SPGS    SUNNY     79  72  78 S6        30.07R
HIGHFILL       SUNNY     78  74  87 S5        30.08R
SPRINGDALE     SUNNY     79  73  83 S3        30.09S
$$

ARZ004-005-016-211400-
NORTH CENTRAL ARKANSAS

CITY           SKY/WX    TMP DP  RH WIND       PRES   REMARKS
BATESVILLE     SUNNY     82  73  74 CALM      30.05R HX  88
FLIPPIN        SUNNY     79  72  78 CALM      30.03R
MTN HOME       SUNNY     80  74  81 CALM      30.05R HX  85
$$

ARZ040-041-211400-
WEST CENTRAL ARKANSAS

CITY           SKY/WX    TMP DP  RH WIND       PRES   REMARKS
MENA           NOT AVBL
MOUNT IDA      SUNNY     78  75  90 CALM      30.04R
$$

ARZ009-017-025-026-028-211400-
NORTHEAST ARKANSAS

CITY           SKY/WX    TMP DP  RH WIND       PRES   REMARKS
JONESBORO      SUNNY     84  78  82 CALM      30.04R HX  95
WALNUT RIDGE   SUNNY     81  75  83 CALM      30.05R HX  86
BLYTHEVILLE    SUNNY     84  77  79 S6        30.05R HX  94
$$

ARZ022-023-033-042-044-211400-
CENTRAL ARKANSAS

CITY           SKY/WX    TMP DP  RH WIND       PRES   REMARKS
LITTLE ROCK    SUNNY     82  78  88 CALM      30.04R HX  91
N LITTLE ROCK    N/A     83  77  82 CALM      30.03R HX  92
JACKSONVILLE   SUNNY     81  78  91 CALM      30.03R HX  90
CONWAY           N/A     82  79  89 CALM      30.02R HX  93
SEARCY         SUNNY     82  79  90 CALM      30.06R HX  92
HOT SPRINGS    SUNNY     82  78  88 CALM      30.05R HX  91
RUSSELLVILLE   SUNNY     81  77  88 CALM      30.03R HX  88
CLINTON        FAIR      77  73  88 CALM      30.05R FOG
$$

ARZ036-211400-
EAST ARKANSAS

CITY           SKY/WX    TMP DP  RH WIND       PRES   REMARKS
WEST MEMPHIS   SUNNY     83  78  85 S3        30.04R HX  93
$$

ARZ050-053-066-070-073-211400-
SOUTHWEST ARKANSAS

CITY           SKY/WX    TMP DP  RH WIND       PRES   REMARKS
ARKADELPHIA    CLOUDY    78  78 100 CALM      30.05R FOG
CAMDEN         SUNNY     84  75  74 CALM      30.04R HX  92
TEXARKANA      MOSUNNY   83  76  79 SW6       30.05R HX  91
EL DORADO      SUNNY     82  77  84 CALM      30.05R HX  90
DE QUEEN       SUNNY     80  79  96 CALM      30.03R FOG     HX  88
$$

ARZ056-057-069-211400-
SOUTHEAST ARKANSAS

CITY           SKY/WX    TMP DP  RH WIND       PRES   REMARKS
PINE BLUFF     SUNNY     81  77  88 CALM      30.05R HX  88
STUTTGART      SUNNY     84  66  54 SW3       30.05S HX  86
MONTICELLO     SUNNY     85  75  72 CALM      30.05R HX  93

$$






USA.gov is the U.S. government's official web portal to all federal, state and local government web resources and services.